Time,TemperatureF,DewpointF,PressureIn,WindDirection,WindDirectionDegrees,WindSpeedMPH,WindSpeedGustMPH,Humidity,HourlyPrecipIn,Conditions,Clouds,dailyrainin,SoftwareType,DateUTC
2013-08-29 00:12:00,63.3,63.0,29.94,NNW,328,0.0,1.0,100,0.00,,,0.09,weatherlink.com 1.10,2013-08-29 04:12:00,
2013-08-29 00:27:00,63.4,63.0,29.94,NNW,327,0.0,0.0,100,0.00,,,0.09,weatherlink.com 1.10,2013-08-29 04:27:00,
2013-08-29 00:42:00,63.4,63.0,29.94,NNW,328,0.0,0.0,100,0.00,,,0.09,weatherlink.com 1.10,2013-08-29 04:42:00,
2013-08-29 00:57:00,63.4,63.0,29.94,NNW,328,0.0,0.0,100,0.00,,,0.09,weatherlink.com 1.10,2013-08-29 04:57:00,
2013-08-29 01:12:00,63.4,63.0,29.93,NNW,328,0.0,0.0,100,0.00,,,0.09,weatherlink.com 1.10,2013-08-29 05:12:00,
2013-08-29 01:27:00,63.4,63.0,29.93,NNW,328,0.0,0.0,100,0.00,,,0.09,weatherlink.com 1.10,2013-08-29 05:27:00,
2013-08-29 01:42:00,63.3,63.0,29.93,NNW,328,0.0,0.0,100,0.00,,,0.09,weatherlink.com 1.10,2013-08-29 05:42:00,
2013-08-29 01:57:00,63.3,63.0,29.92,NNW,327,0.0,0.0,100,0.00,,,0.09,weatherlink.com 1.10,2013-08-29 05:57:00,
2013-08-29 02:12:00,63.0,63.0,29.93,NNW,328,0.0,0.0,100,0.00,,,0.09,weatherlink.com 1.10,2013-08-29 06:12:00,
2013-08-29 02:27:00,63.0,63.0,29.93,NNW,328,0.0,0.0,100,0.00,,,0.09,weatherlink.com 1.10,2013-08-29 06:27:00,
2013-08-29 02:42:00,63.1,63.0,29.94,NNW,328,0.0,0.0,100,0.00,,,0.09,weatherlink.com 1.10,2013-08-29 06:42:00,
2013-08-29 02:57:00,63.1,63.0,29.94,NNW,327,0.0,0.0,100,0.00,,,0.09,weatherlink.com 1.10,2013-08-29 06:57:00,
2013-08-29 03:12:00,62.9,63.0,29.94,NNW,327,0.0,0.0,100,0.00,,,0.09,weatherlink.com 1.10,2013-08-29 07:12:00,
2013-08-29 03:27:00,62.7,63.0,29.94,NNW,328,0.0,1.0,100,0.00,,,0.09,weatherlink.com 1.10,2013-08-29 07:27:00,
2013-08-29 03:42:00,62.4,62.0,29.94,NNW,328,0.0,0.0,100,0.00,,,0.09,weatherlink.com 1.10,2013-08-29 07:42:00,
2013-08-29 03:57:00,62.3,62.0,29.95,NNW,328,0.0,1.0,100,0.00,,,0.09,weatherlink.com 1.10,2013-08-29 07:57:00,
2013-08-29 04:12:00,62.5,63.0,29.95,NNE,12,0.0,1.0,100,0.00,,,0.09,weatherlink.com 1.10,2013-08-29 08:12:00,
2013-08-29 04:27:00,62.6,63.0,29.96,NNE,12,0.0,1.0,100,0.00,,,0.09,weatherlink.com 1.10,2013-08-29 08:27:00,
2013-08-29 04:42:00,62.7,63.0,29.96,NNE,12,0.0,1.0,100,0.00,,,0.09,weatherlink.com 1.10,2013-08-29 08:42:00,
2013-08-29 04:57:00,62.7,63.0,29.97,NNE,12,0.0,0.0,100,0.00,,,0.09,weatherlink.com 1.10,2013-08-29 08:57:00,
2013-08-29 05:12:00,62.8,63.0,29.98,NNE,12,0.0,0.0,100,0.00,,,0.09,weatherlink.com 1.10,2013-08-29 09:12:00,
2013-08-29 05:27:00,62.7,63.0,29.98,NNE,12,0.0,0.0,100,0.00,,,0.09,weatherlink.com 1.10,2013-08-29 09:27:00,
2013-08-29 05:42:00,62.3,62.0,29.98,NNE,12,0.0,0.0,100,0.00,,,0.09,weatherlink.com 1.10,2013-08-29 09:42:00,
2013-08-29 05:57:00,62.1,62.0,29.99,NNE,12,0.0,0.0,100,0.00,,,0.09,weatherlink.com 1.10,2013-08-29 09:57:00,
2013-08-29 06:12:00,62.1,62.0,30.00,NNE,12,0.0,0.0,100,0.00,,,0.09,weatherlink.com 1.10,2013-08-29 10:12:00,
2013-08-29 06:27:00,62.3,62.0,30.00,NNE,12,0.0,0.0,100,0.00,,,0.09,weatherlink.com 1.10,2013-08-29 10:27:00,
2013-08-29 06:42:00,62.4,62.0,30.00,NNE,12,0.0,0.0,100,0.00,,,0.09,weatherlink.com 1.10,2013-08-29 10:42:00,
2013-08-29 06:57:00,62.6,63.0,30.00,NNE,12,0.0,0.0,100,0.00,,,0.09,weatherlink.com 1.10,2013-08-29 10:57:00,
2013-08-29 07:12:00,62.8,63.0,30.01,NNE,12,0.0,0.0,100,0.00,,,0.09,weatherlink.com 1.10,2013-08-29 11:12:00,
2013-08-29 07:27:00,62.9,63.0,30.02,NNE,12,0.0,0.0,100,0.00,,,0.09,weatherlink.com 1.10,2013-08-29 11:27:00,
2013-08-29 07:42:00,63.1,63.0,30.02,NNE,12,0.0,1.0,100,0.00,,,0.09,weatherlink.com 1.10,2013-08-29 11:42:00,
2013-08-29 07:57:00,63.3,63.0,30.02,NNE,12,0.0,0.0,100,0.00,,,0.09,weatherlink.com 1.10,2013-08-29 11:57:00,
2013-08-29 08:12:00,63.2,63.0,30.03,NNE,12,0.0,1.0,100,0.00,,,0.09,weatherlink.com 1.10,2013-08-29 12:12:00,
2013-08-29 08:27:00,62.9,63.0,30.03,ESE,103,1.0,1.0,100,0.00,,,0.09,weatherlink.com 1.10,2013-08-29 12:27:00,
2013-08-29 08:42:00,62.4,62.0,30.03,East,99,1.0,2.0,100,0.00,,,0.09,weatherlink.com 1.10,2013-08-29 12:42:00,
2013-08-29 08:57:00,61.9,62.0,30.04,East,97,0.0,2.0,100,0.00,,,0.09,weatherlink.com 1.10,2013-08-29 12:57:00,
2013-08-29 09:12:00,61.4,61.0,30.05,NNE,33,0.0,2.0,100,0.00,,,0.09,weatherlink.com 1.10,2013-08-29 13:12:00,
2013-08-29 09:27:00,60.8,61.0,30.05,ESE,120,1.0,2.0,100,0.00,,,0.09,weatherlink.com 1.10,2013-08-29 13:27:00,
2013-08-29 09:42:00,60.7,61.0,30.05,East,94,1.0,3.0,100,0.00,,,0.09,weatherlink.com 1.10,2013-08-29 13:42:00,
2013-08-29 09:57:00,60.7,61.0,30.05,East,101,0.0,1.0,100,0.00,,,0.09,weatherlink.com 1.10,2013-08-29 13:57:00,
2013-08-29 10:12:00,60.7,61.0,30.05,SE,134,0.0,2.0,100,0.00,,,0.09,weatherlink.com 1.10,2013-08-29 14:12:00,
2013-08-29 10:27:00,60.9,61.0,30.05,East,94,0.0,2.0,100,0.00,,,0.09,weatherlink.com 1.10,2013-08-29 14:27:00,
2013-08-29 10:42:00,61.2,61.0,30.05,ESE,115,0.0,2.0,100,0.00,,,0.09,weatherlink.com 1.10,2013-08-29 14:42:00,
2013-08-29 10:57:00,61.6,62.0,30.05,ESE,111,0.0,1.0,100,0.00,,,0.09,weatherlink.com 1.10,2013-08-29 14:57:00,
2013-08-29 11:12:00,61.6,62.0,30.05,ESE,105,1.0,2.0,100,0.00,,,0.09,weatherlink.com 1.10,2013-08-29 15:12:00,
2013-08-29 11:28:00,62.1,62.0,30.05,SE,141,1.0,2.0,99,0.00,,,0.09,weatherlink.com 1.10,2013-08-29 15:28:00,
2013-08-29 11:43:00,62.3,62.0,30.05,ESE,114,1.0,2.0,98,0.00,,,0.09,weatherlink.com 1.10,2013-08-29 15:43:00,
2013-08-29 11:58:00,62.4,62.0,30.05,East,96,1.0,1.0,97,0.00,,,0.09,weatherlink.com 1.10,2013-08-29 15:58:00,
2013-08-29 12:13:00,62.6,62.0,30.05,SE,133,1.0,2.0,97,0.00,,,0.09,weatherlink.com 1.10,2013-08-29 16:13:00,
2013-08-29 12:28:00,63.1,62.0,30.05,SE,135,0.0,2.0,96,0.00,,,0.09,weatherlink.com 1.10,2013-08-29 16:28:00,
2013-08-29 12:43:00,63.1,62.0,30.05,ESE,110,1.0,2.0,95,0.00,,,0.09,weatherlink.com 1.10,2013-08-29 16:43:00,
2013-08-29 12:58:00,63.1,61.0,30.05,ESE,106,1.0,2.0,94,0.00,,,0.09,weatherlink.com 1.10,2013-08-29 16:58:00,
2013-08-29 13:13:00,63.2,62.0,30.05,SE,145,0.0,2.0,94,0.00,,,0.09,weatherlink.com 1.10,2013-08-29 17:13:00,
2013-08-29 13:28:00,62.9,61.0,30.05,SE,124,1.0,2.0,94,0.00,,,0.09,weatherlink.com 1.10,2013-08-29 17:28:00,
2013-08-29 13:43:00,62.9,61.0,30.05,ESE,120,0.0,2.0,94,0.00,,,0.09,weatherlink.com 1.10,2013-08-29 17:43:00,
2013-08-29 13:58:00,62.8,61.0,30.05,ESE,123,0.0,1.0,94,0.00,,,0.09,weatherlink.com 1.10,2013-08-29 17:58:00,
2013-08-29 14:13:00,62.6,61.0,30.04,ESE,122,1.0,1.0,94,0.00,,,0.09,weatherlink.com 1.10,2013-08-29 18:13:00,
2013-08-29 14:28:00,62.8,61.0,30.04,ESE,122,0.0,1.0,94,0.00,,,0.09,weatherlink.com 1.10,2013-08-29 18:28:00,
2013-08-29 14:43:00,62.8,61.0,30.04,SE,131,0.0,1.0,94,0.00,,,0.09,weatherlink.com 1.10,2013-08-29 18:43:00,
2013-08-29 14:58:00,62.9,61.0,30.04,SSE,148,0.0,1.0,94,0.00,,,0.09,weatherlink.com 1.10,2013-08-29 18:58:00,
2013-08-29 15:13:00,62.6,61.0,30.04,ESE,122,0.0,1.0,94,0.00,,,0.09,weatherlink.com 1.10,2013-08-29 19:13:00,
2013-08-29 15:28:00,62.5,61.0,30.04,SE,141,0.0,0.0,94,0.00,,,0.09,weatherlink.com 1.10,2013-08-29 19:28:00,
2013-08-29 15:43:00,62.1,60.0,30.04,SE,129,0.0,0.0,93,0.00,,,0.09,weatherlink.com 1.10,2013-08-29 19:43:00,
2013-08-29 15:58:00,62.1,60.0,30.04,SE,128,0.0,0.0,94,0.00,,,0.09,weatherlink.com 1.10,2013-08-29 19:58:00,
2013-08-29 16:13:00,62.1,60.0,30.04,South,181,0.0,0.0,94,0.00,,,0.09,weatherlink.com 1.10,2013-08-29 20:13:00,
2013-08-29 16:28:00,62.2,61.0,30.04,South,182,0.0,0.0,94,0.00,,,0.09,weatherlink.com 1.10,2013-08-29 20:28:00,
2013-08-29 16:43:00,62.3,61.0,30.04,South,181,0.0,0.0,95,0.00,,,0.09,weatherlink.com 1.10,2013-08-29 20:43:00,
2013-08-29 16:58:00,62.3,61.0,30.03,South,182,0.0,0.0,95,0.00,,,0.09,weatherlink.com 1.10,2013-08-29 20:58:00,
2013-08-29 17:13:00,62.3,61.0,30.04,South,181,0.0,0.0,94,0.00,,,0.09,weatherlink.com 1.10,2013-08-29 21:13:00,
2013-08-29 17:28:00,62.5,61.0,30.04,South,182,0.0,0.0,93,0.00,,,0.09,weatherlink.com 1.10,2013-08-29 21:28:00,
2013-08-29 17:43:00,62.6,61.0,30.03,South,172,0.0,0.0,93,0.00,,,0.09,weatherlink.com 1.10,2013-08-29 21:43:00,
2013-08-29 17:58:00,62.6,61.0,30.03,South,191,0.0,0.0,94,0.00,,,0.09,weatherlink.com 1.10,2013-08-29 21:58:00,
2013-08-29 18:13:00,62.5,61.0,30.03,SSW,200,0.0,0.0,95,0.00,,,0.09,weatherlink.com 1.10,2013-08-29 22:13:00,
2013-08-29 18:28:00,62.4,61.0,30.03,SSW,200,0.0,0.0,95,0.00,,,0.09,weatherlink.com 1.10,2013-08-29 22:28:00,
2013-08-29 18:43:00,62.4,61.0,30.03,SSW,200,0.0,0.0,95,0.00,,,0.09,weatherlink.com 1.10,2013-08-29 22:43:00,
2013-08-29 18:58:00,62.0,61.0,30.03,SSW,200,0.0,0.0,96,0.00,,,0.00,weatherlink.com 1.10,2013-08-29 22:58:00,
2013-08-29 19:14:00,61.8,61.0,30.03,SE,124,0.0,0.0,96,0.00,,,0.00,weatherlink.com 1.10,2013-08-29 23:14:00,
2013-08-29 19:28:00,61.5,60.0,30.03,SE,124,0.0,0.0,96,0.00,,,0.00,weatherlink.com 1.10,2013-08-29 23:28:00,
2013-08-29 19:43:00,61.2,60.0,30.03,SE,124,0.0,0.0,97,0.00,,,0.00,weatherlink.com 1.10,2013-08-29 23:43:00,
2013-08-29 19:58:00,61.0,61.0,30.03,SE,128,0.0,0.0,98,0.00,,,0.00,weatherlink.com 1.10,2013-08-29 23:58:00,
2013-08-29 20:13:00,60.8,60.0,30.03,SE,128,0.0,0.0,98,0.00,,,0.00,weatherlink.com 1.10,2013-08-30 00:13:00,
2013-08-29 20:28:00,60.7,60.0,30.03,SE,128,0.0,0.0,98,0.00,,,0.00,weatherlink.com 1.10,2013-08-30 00:28:00,
2013-08-29 20:43:00,60.5,60.0,30.04,SE,128,0.0,0.0,98,0.00,,,0.00,weatherlink.com 1.10,2013-08-30 00:43:00,
2013-08-29 20:58:00,60.4,60.0,30.04,SE,128,0.0,0.0,99,0.00,,,0.00,weatherlink.com 1.10,2013-08-30 00:58:00,
2013-08-29 21:13:00,60.5,60.0,30.04,SE,128,0.0,0.0,99,0.00,,,0.00,weatherlink.com 1.10,2013-08-30 01:13:00,
2013-08-29 21:28:00,60.4,60.0,30.04,SE,128,0.0,0.0,99,0.00,,,0.00,weatherlink.com 1.10,2013-08-30 01:28:00,
2013-08-29 21:43:00,60.5,60.0,30.04,SE,129,0.0,0.0,99,0.00,,,0.00,weatherlink.com 1.10,2013-08-30 01:43:00,
2013-08-29 21:58:00,60.4,60.0,30.03,SE,128,0.0,0.0,99,0.00,,,0.00,weatherlink.com 1.10,2013-08-30 01:58:00,
2013-08-29 22:13:00,60.3,60.0,30.03,SE,128,0.0,0.0,99,0.00,,,0.00,weatherlink.com 1.10,2013-08-30 02:13:00,
2013-08-29 22:28:00,60.1,60.0,30.02,SE,128,0.0,0.0,99,0.00,,,0.00,weatherlink.com 1.10,2013-08-30 02:28:00,
2013-08-29 22:43:00,59.8,60.0,30.02,SE,129,0.0,0.0,99,0.00,,,0.00,weatherlink.com 1.10,2013-08-30 02:43:00,
2013-08-29 22:58:00,59.2,59.0,30.02,SE,129,0.0,0.0,99,0.00,,,0.00,weatherlink.com 1.10,2013-08-30 02:58:00,
2013-08-29 23:13:00,58.9,59.0,30.01,SE,128,0.0,0.0,99,0.00,,,0.00,weatherlink.com 1.10,2013-08-30 03:13:00,
2013-08-29 23:28:00,58.4,58.0,30.01,SE,128,0.0,0.0,99,0.00,,,0.00,weatherlink.com 1.10,2013-08-30 03:28:00,
2013-08-29 23:43:00,57.9,58.0,30.00,SE,128,0.0,0.0,99,0.00,,,0.00,weatherlink.com 1.10,2013-08-30 03:43:00,
2013-08-29 23:58:00,57.6,57.0,30.00,SE,128,0.0,0.0,99,0.00,,,0.00,weatherlink.com 1.10,2013-08-30 03:58:00,